Wind_Speed
23 22 22 22 21 21 22 22 22 22 23 23 21 20 20 20 20 19 18 16 14 13 13 13 13 13 13 13 13 14 15 17 18 17 17 18 19 19 19 20 20 20 22 23 25 26 27 28 30 32 34 34 34 35 36 37 38 39 40 40 40 41 41
22 22 22 22 20 20 21 22 22 22 22 22 20 20 20 20 20 18 17 15 13 13 13 13 13 13 13 14 15 16 17 18 18 19 19 20 20 20 21 21 22 22 23 25 26 28 28 29 31 33 34 35 36 37 38 39 40 41 41 42 42 43 43
22 22 22 21 19 20 21 21 21 21 20 20 20 19 20 20 19 17 16 14 14 14 14 13 13 13 14 15 16 17 18 18 19 20 20 20 21 21 21 22 23 24 26 27 28 29 31 32 33 34 35 37 37 38 39 40 40 42 42 43 43 44 44
21 22 21 19 18 19 20 19 19 20 19 19 19 19 20 20 18 17 15 15 15 15 15 14 13 14 15 16 17 18 18 19 20 21 21 21 21 21 22 23 24 25 27 29 30 32 33 34 35 35 37 38 39 39 40 40 40 41 43 43 44 44 44
20 20 19 17 17 17 18 18 19 19 19 19 19 18 19 19 17 16 16 16 16 17 16 14 14 16 17 17 18 19 19 20 21 21 22 21 21 22 22 23 24 26 28 30 32 33 35 37 37 37 38 39 40 41 41 41 41 42 43 44 44 44 45
20 19 17 16 15 16 17 17 18 19 19 19 19 17 18 18 17 16 17 18 18 17 17 16 16 17 18 18 19 19 20 21 21 22 22 22 22 22 23 24 26 28 30 31 33 35 36 37 38 39 39 40 41 42 43 43 43 44 44 45 45 45 45
18 16 15 14 14 15 16 17 18 18 18 19 19 17 17 17 17 17 18 19 19 18 17 16 17 18 19 19 19 20 21 21 22 22 22 22 22 23 24 25 27 29 31 33 34 36 37 38 39 39 40 41 42 43 43 44 45 45 46 47 46 47 47
16 15 14 14 14 15 16 17 18 18 18 19 19 18 17 17 18 19 20 20 19 18 17 17 18 19 19 19 20 21 22 22 23 23 23 23 23 24 25 26 28 30 32 34 35 36 37 38 39 40 41 42 43 44 45 45 46 46 47 47 48 48 49
15 14 14 13 13 15 16 17 18 18 18 18 18 18 18 18 19 20 20 20 19 18 18 18 19 19 19 20 21 21 22 23 23 23 23 23 24 25 26 27 29 31 33 35 36 37 38 39 39 40 41 42 44 45 46 46 47 47 47 48 49 49 48
14 14 14 13 14 15 16 17 18 18 18 18 18 19 19 19 19 20 21 20 19 18 18 18 19 19 20 20 21 22 23 23 24 24 24 24 25 27 28 29 31 33 35 37 38 38 39 40 40 41 41 43 44 46 46 47 47 47 47 47 47 47 46
15 15 15 14 14 15 16 17 17 17 17 17 18 20 20 19 20 21 21 19 18 18 18 18 19 20 20 21 22 23 23 24 24 24 25 26 27 29 30 31 33 35 37 39 39 40 40 41 41 41 42 43 44 45 46 47 47 47 47 46 45 45 45
15 16 15 14 14 15 15 16 16 16 16 16 19 21 21 20 20 21 20 19 18 18 18 18 19 20 21 22 23 23 24 24 24 25 26 28 29 30 32 33 35 37 39 40 41 41 41 42 42 42 43 44 45 45 46 47 47 46 45 45 45 44 44
15 16 16 15 14 14 15 16 16 16 15 16 19 20 21 21 21 21 20 19 19 18 18 19 20 21 21 22 23 24 24 24 25 26 28 29 31 32 34 35 36 38 40 41 42 42 42 42 42 43 44 44 45 45 46 46 46 46 45 44 44 44 43
15 16 16 15 15 14 15 16 17 16 15 16 18 20 21 21 22 22 21 20 19 18 18 19 20 21 22 23 24 24 24 25 26 28 30 32 33 34 36 36 37 39 40 42 43 43 43 43 43 44 44 45 45 45 46 46 45 44 45 44 43 43 42
16 16 17 16 15 15 16 17 17 16 15 16 18 20 21 21 22 22 21 21 20 19 20 20 21 22 24 24 24 25 25 26 28 30 32 34 36 37 37 37 37 39 40 42 43 43 43 43 43 44 45 45 45 45 45 45 44 43 43 43 42 42 41
16 17 17 16 16 16 17 17 17 16 16 16 18 20 21 21 21 21 21 21 20 20 21 22 22 24 25 25 25 26 27 28 30 32 34 36 37 37 35 34 35 37 39 41 42 42 43 43 44 44 44 44 44 45 45 44 42 42 42 42 42 41 39
17 18 18 16 16 17 18 18 18 17 17 17 18 19 20 20 20 21 21 21 21 22 23 23 24 26 26 27 27 27 29 31 33 34 34 34 33 31 30 31 33 35 37 39 40 41 42 43 43 43 44 44 44 44 44 42 41 41 41 41 41 39 36
18 18 18 16 17 18 19 18 18 17 17 18 18 19 19 18 19 20 21 22 22 23 24 25 27 28 28 28 28 30 31 32 32 31 30 30 29 29 29 30 31 33 35 37 38 40 41 42 42 42 43 43 44 43 42 40 40 40 41 40 40 38 35
18 19 18 17 18 19 19 19 18 18 18 18 18 19 19 19 20 21 21 22 22 23 25 26 28 28 28 29 31 31 30 29 28 28 28 28 29 29 30 30 31 32 34 36 38 39 40 40 41 41 42 43 43 41 39 39 40 40 41 40 38 36 34
19 19 18 17 19 20 20 19 19 19 19 19 19 20 20 21 21 21 22 22 23 24 25 26 28 28 28 30 32 30 27 28 29 29 29 28 29 30 30 31 32 33 34 36 37 38 39 39 40 40 41 42 41 39 38 39 40 40 40 40 37 34 33
20 20 19 18 20 21 20 20 19 19 19 20 21 21 21 21 21 21 22 22 22 24 25 26 28 28 29 30 30 28 28 30 31 30 29 29 30 30 31 32 32 33 34 35 36 37 37 38 39 40 41 40 38 37 38 39 39 40 40 38 35 33 33
22 22 20 19 21 21 21 21 20 19 20 21 21 21 20 21 21 21 21 22 23 24 25 27 29 29 29 30 29 30 31 31 30 30 30 30 30 31 31 32 32 33 33 34 34 35 36 37 38 39 39 38 37 36 38 38 38 39 39 37 34 32 32
23 23 21 21 21 22 21 21 20 20 22 22 22 21 21 21 22 22 22 23 24 25 27 28 29 28 29 29 29 30 31 31 30 30 30 30 31 31 32 32 31 31 32 33 33 34 35 36 37 38 37 36 35 36 37 37 38 38 38 35 32 31 32
24 24 22 22 23 22 22 22 21 22 23 23 22 22 22 23 23 23 24 24 25 26 27 29 28 28 28 29 30 30 31 31 30 30 31 31 31 32 32 31 30 30 31 32 33 34 35 36 36 36 35 34 35 36 37 37 37 38 36 33 31 31 32
25 24 23 23 23 23 23 22 22 23 24 24 23 23 23 24 24 25 25 25 26 26 27 28 28 28 29 29 30 31 32 31 30 31 31 30 31 32 31 29 29 30 31 33 34 34 35 35 36 35 34 33 34 35 36 36 37 37 35 32 31 31 32
24 23 23 23 23 22 22 22 22 24 24 25 24 23 24 25 25 26 26 26 26 26 26 27 28 29 30 31 32 32 32 31 30 31 31 30 31 32 30 29 29 31 32 33 34 34 34 35 35 34 32 33 34 34 35 36 36 36 33 31 31 31 31
24 23 23 23 22 21 21 22 23 24 25 26 25 24 25 25 26 26 27 26 26 26 27 28 29 30 31 32 32 32 32 30 30 31 31 31 32 31 29 29 30 32 33 33 33 34 34 35 34 32 31 32 33 34 35 36 35 34 32 30 30 31 31
23 23 23 22 22 22 23 23 24 25 27 27 26 25 26 26 27 27 26 26 26 26 28 29 31 31 32 32 32 32 31 30 30 32 32 31 31 30 29 29 31 33 33 33 33 34 34 34 33 31 31 31 33 34 35 35 34 32 31 30 30 30 30
23 23 23 23 24 24 25 25 26 27 28 28 27 27 27 27 27 26 25 26 27 27 28 31 32 33 33 32 31 30 29 29 31 32 32 32 30 29 29 30 32 33 33 33 34 34 34 34 32 31 30 31 33 34 35 35 33 31 30 30 30 30 31
23 24 24 25 25 26 27 27 27 28 29 28 28 28 28 27 27 26 25 26 27 27 29 32 34 34 34 33 32 30 28 29 31 33 34 32 29 28 30 31 31 32 33 34 34 34 34 32 31 29 29 30 33 34 35 34 32 30 30 30 30 31 31
23 24 25 25 26 26 27 27 27 28 28 28 28 27 27 27 26 25 25 26 27 28 31 33 35 35 35 35 32 28 26 28 31 33 32 29 27 29 31 31 31 32 34 34 34 34 33 31 29 27 28 30 33 34 34 33 31 30 30 31 31 30 30
24 25 26 26 25 25 26 26 27 28 28 27 26 26 26 26 25 25 26 28 30 31 33 34 35 35 37 37 32 26 25 29 31 30 29 29 30 32 33 32 33 34 34 34 34 33 32 30 28 26 28 31 32 34 34 32 31 30 31 31 30 29 29
26 27 28 26 24 24 25 26 27 27 26 25 25 25 25 26 27 28 30 33 34 34 35 35 34 34 36 35 31 28 29 30 29 29 30 33 34 34 33 33 34 34 34 34 33 31 30 29 27 27 28 30 32 33 33 32 30 30 30 30 29 28 28
27 27 27 25 24 25 25 25 25 24 24 24 25 26 27 29 31 33 34 36 36 35 35 35 35 34 33 31 30 31 32 32 30 30 31 32 32 32 32 33 33 33 33 33 32 30 29 28 27 28 29 31 32 33 33 31 30 30 30 30 29 28 27
26 26 27 26 25 24 23 23 23 23 24 25 26 28 30 32 34 35 36 36 36 36 36 36 35 34 32 31 33 36 35 33 32 31 30 30 31 31 32 33 33 33 32 32 31 30 29 28 28 29 30 31 31 32 32 31 30 30 30 30 29 28 27
26 26 26 26 24 23 23 23 24 25 26 27 29 31 32 34 35 36 36 37 37 36 36 35 34 32 31 32 34 36 35 33 32 31 30 30 30 31 32 32 32 32 32 32 31 30 29 29 29 29 30 31 31 31 31 30 30 30 30 29 28 28 27
25 26 26 25 24 24 24 24 25 27 27 29 31 33 34 35 36 36 37 37 37 36 35 33 32 33 33 34 34 34 34 33 31 30 30 30 30 31 32 32 32 32 32 32 31 30 30 30 30 31 31 30 30 30 30 30 30 30 30 29 28 28 27
Wind_Direction
279 280 280 280 283 287 290 292 295 298 298 298 301 302 303 302 300 298 294 290 285 278 277 282 286 285 284 285 286 289 291 294 296 297 297 298 299 300 302 302 303 304 306 309 312 314 315 316 316 315 314 315 317 317 317 317 317 317 318 320 321 321 320
271 273 277 279 283 288 290 292 295 296 296 297 301 301 299 297 296 294 291 286 278 273 276 279 278 279 281 284 287 289 290 292 294 296 297 297 299 301 302 302 303 305 307 310 311 312 314 315 316 316 315 316 318 318 318 317 316 316 318 320 320 320 320
267 270 274 278 284 288 289 293 295 295 294 296 300 299 296 293 292 290 287 281 274 274 277 278 278 280 282 284 286 288 289 291 292 294 295 298 301 302 301 301 303 306 309 310 311 312 313 313 314 315 316 317 317 317 316 316 315 315 317 318 319 320 319
266 269 272 278 284 286 288 292 295 294 294 296 299 298 293 290 289 286 283 277 275 277 279 279 280 281 282 283 284 286 288 290 291 293 296 299 301 300 300 301 304 307 309 310 311 312 313 311 311 314 315 316 316 315 315 314 313 314 316 317 318 318 317
263 266 272 278 282 284 288 293 295 295 294 296 297 296 292 289 285 281 279 275 276 278 278 278 279 280 282 282 283 285 287 289 291 294 296 298 299 298 299 302 305 307 308 310 311 312 311 311 312 313 315 315 315 314 314 313 313 314 314 315 316 316 315
261 267 273 277 279 283 289 293 295 294 293 295 296 294 289 286 282 277 275 276 276 276 276 277 278 280 281 281 282 285 287 289 292 294 296 297 297 298 299 303 305 307 308 310 310 310 310 311 312 313 313 314 314 313 313 314 314 313 314 314 314 314 313
262 268 272 276 281 285 289 292 292 292 291 294 296 292 284 281 279 275 274 276 276 274 274 276 277 278 279 281 283 286 288 290 292 295 296 296 297 298 301 303 305 307 308 308 309 309 310 311 311 312 312 312 312 312 313 313 313 313 313 314 314 314 314
262 269 274 280 284 287 289 290 289 289 290 293 293 289 281 277 277 275 274 275 274 273 273 274 276 277 280 282 285 287 289 292 294 296 296 296 298 299 302 303 304 306 307 307 308 309 310 310 311 311 311 310 310 311 312 312 313 313 313 314 314 315 314
263 268 275 281 283 285 286 285 286 287 289 291 289 285 280 276 276 275 274 274 272 272 272 273 276 278 281 284 286 289 293 295 296 296 296 297 299 301 302 303 303 305 306 307 308 309 310 311 310 310 310 309 310 311 312 312 312 312 313 315 316 315 315
263 267 272 277 281 282 282 282 284 285 288 290 286 282 278 276 276 275 274 273 271 270 272 274 277 280 283 286 289 293 295 296 296 296 298 300 301 302 302 302 302 305 306 307 308 309 310 310 310 309 309 310 310 310 311 311 312 313 314 315 316 316 315
263 267 270 275 279 281 281 281 282 285 289 290 285 280 277 276 275 274 273 271 269 269 271 276 280 283 287 290 293 295 295 296 297 299 301 303 303 302 302 302 303 304 306 307 307 309 310 309 309 309 309 310 310 310 310 311 312 314 316 316 316 315 315
261 267 270 274 277 279 281 281 282 286 290 290 285 280 277 275 273 273 272 268 266 268 273 279 283 287 290 292 293 294 295 298 301 304 304 303 303 302 302 302 303 304 306 307 307 307 308 309 309 309 309 310 310 309 310 311 312 314 316 317 316 315 316
259 266 270 274 277 280 282 281 282 287 290 289 285 280 276 272 270 271 269 265 264 269 275 281 286 290 292 292 293 295 297 301 305 305 304 303 302 302 301 302 303 304 304 305 305 306 307 307 307 308 308 309 309 310 311 313 314 315 316 316 316 317 318
258 266 270 273 277 281 283 283 285 288 288 286 283 279 275 269 267 267 265 264 266 271 278 283 288 291 291 292 294 297 299 303 304 303 302 302 301 300 300 301 302 302 302 302 304 305 305 306 307 307 308 308 309 310 311 314 315 315 316 316 317 319 320
258 265 270 274 279 283 284 286 289 289 285 282 279 277 273 268 265 264 263 264 267 273 278 283 287 290 291 293 295 297 300 301 301 301 301 300 300 300 300 301 301 300 300 301 302 303 304 305 306 307 307 308 309 310 312 314 315 315 316 318 320 321 321
259 265 269 275 280 283 286 287 289 288 284 279 275 273 272 268 265 263 263 264 268 273 277 282 286 289 291 293 295 297 298 298 298 299 300 301 301 301 301 301 300 298 298 299 301 302 303 305 306 306 308 309 309 311 313 314 314 316 318 319 321 322 320
259 264 269 276 281 284 286 286 286 285 282 278 274 271 269 267 264 263 263 265 269 273 277 282 285 287 290 293 295 297 298 298 298 299 300 302 303 303 302 301 299 297 297 298 300 301 303 304 305 306 308 308 309 311 313 313 314 316 319 320 321 321 319
260 264 269 276 280 283 284 285 284 282 280 278 274 270 269 267 265 264 265 268 271 275 279 281 284 287 292 295 297 299 299 300 300 300 301 304 304 303 303 302 300 298 298 299 300 301 303 304 305 307 307 308 310 312 312 313 315 317 319 321 320 319 319
261 264 269 274 278 280 283 283 281 279 278 277 273 269 268 267 267 267 269 272 275 278 280 282 286 290 295 298 299 298 300 302 302 302 304 304 304 305 305 304 303 302 301 300 300 301 303 304 306 306 307 308 310 312 312 314 317 319 320 321 320 319 319
262 264 267 271 275 278 280 280 278 277 277 276 272 268 267 267 269 271 273 275 277 280 283 286 290 293 296 298 297 297 301 304 305 305 306 306 307 307 307 306 305 303 301 300 301 302 304 305 306 306 307 308 310 311 313 315 318 319 321 322 321 320 320
262 263 265 269 273 276 277 276 275 275 275 274 271 270 271 271 273 274 276 278 281 284 287 289 291 293 296 297 297 298 303 306 306 307 307 308 308 307 306 306 304 302 301 301 302 303 304 305 306 307 308 309 310 311 314 317 319 320 322 322 321 320 321
260 262 264 267 270 273 274 273 272 271 271 270 271 272 274 275 276 278 279 282 284 286 288 289 291 295 297 298 298 300 303 304 306 307 308 307 306 305 305 305 303 302 302 302 302 304 306 307 307 308 309 309 310 312 316 318 320 321 322 322 321 320 322
259 261 263 266 268 270 271 271 270 268 267 267 269 271 273 275 277 280 282 284 286 287 288 289 293 296 297 297 297 299 301 302 304 306 305 305 304 303 304 304 302 302 302 303 304 306 308 308 308 308 309 309 311 314 318 320 321 322 322 321 320 321 323
258 261 263 265 266 267 268 268 267 266 265 265 266 269 272 274 277 280 283 284 286 288 289 291 294 296 296 296 296 297 299 301 303 304 303 303 302 302 303 303 302 302 304 305 308 309 310 309 309 309 309 310 312 316 319 321 322 322 321 320 320 321 323
258 261 263 264 266 267 267 267 266 264 263 263 265 267 271 274 278 281 284 286 287 288 289 291 293 295 295 295 295 296 298 300 301 301 301 301 301 302 303 303 303 305 307 308 310 310 310 309 309 309 309 311 314 317 320 322 322 322 321 320 319 321 324
259 261 262 263 265 267 267 265 264 263 263 264 266 269 273 277 281 283 285 287 287 286 286 288 290 292 292 292 292 294 296 297 299 300 300 301 301 302 303 303 305 307 309 310 311 310 310 310 310 310 310 312 316 319 321 322 322 322 320 318 318 321 325
258 259 260 261 264 265 264 262 262 263 265 267 270 273 276 279 282 284 285 286 286 286 287 288 288 289 288 289 290 292 294 296 298 300 301 301 302 303 302 304 307 309 310 311 311 310 310 311 311 311 311 314 318 320 321 322 322 320 317 316 317 321 327
256 257 258 259 261 262 262 261 262 263 265 270 274 276 277 279 281 282 284 286 287 288 289 288 288 289 289 288 290 292 293 296 298 300 300 301 302 302 302 305 308 309 310 311 311 311 312 313 313 311 312 316 319 320 321 321 320 318 315 315 317 323 330
254 255 256 258 259 260 261 261 261 263 268 272 275 276 277 278 279 281 282 285 287 289 291 290 290 291 291 291 292 292 292 295 298 300 301 301 300 300 303 306 308 308 309 311 311 312 313 315 313 311 312 316 319 320 321 321 319 316 314 314 318 325 332
257 258 259 260 260 260 262 262 263 266 269 272 274 275 277 278 279 281 283 285 287 290 291 291 291 292 292 292 292 289 289 295 299 301 301 299 296 299 304 307 307 308 310 311 312 313 315 315 313 311 312 316 319 321 321 320 317 314 313 314 319 326 333
264 264 262 261 263 265 265 266 266 267 268 271 273 275 277 279 281 283 285 286 287 290 292 293 295 295 296 296 292 285 286 296 301 302 300 295 295 302 306 307 308 309 311 312 312 313 315 315 313 311 313 316 320 322 322 320 317 314 313 315 320 328 335
270 269 263 263 267 268 267 266 266 267 269 272 274 275 277 280 282 285 286 287 289 292 294 296 297 296 296 295 290 283 288 299 302 301 297 293 297 304 307 307 308 310 311 312 312 313 316 315 312 310 313 317 321 322 322 319 316 314 313 315 321 329 335
274 272 265 265 267 264 264 265 265 268 270 271 272 274 276 280 282 284 286 288 291 294 295 296 296 295 295 292 286 284 291 298 299 295 291 292 297 302 304 306 308 310 311 311 311 313 315 314 311 309 311 316 320 322 322 319 315 313 312 315 321 329 334
271 266 262 263 264 261 261 263 264 265 267 269 272 275 277 280 282 284 286 288 291 293 294 294 294 293 291 287 286 291 297 299 298 294 292 293 296 299 302 305 308 309 309 309 310 312 313 312 310 308 309 313 317 320 320 317 314 312 311 313 319 326 331
266 261 260 262 262 259 258 260 261 264 267 271 274 277 278 280 282 285 288 289 290 290 291 292 293 292 287 283 286 293 297 298 297 295 295 295 297 299 302 305 307 308 308 308 309 310 311 311 309 307 308 311 314 317 317 316 312 310 309 311 317 322 327
260 256 256 256 255 255 257 260 264 267 270 274 276 277 279 281 283 286 288 288 287 288 288 290 290 289 288 287 288 292 295 295 295 296 296 297 297 300 303 305 306 307 306 307 308 309 309 309 307 306 307 310 313 314 315 313 311 308 307 309 313 318 323
251 250 250 252 254 257 261 264 269 272 274 275 276 278 280 282 284 285 285 285 286 286 287 288 288 287 288 289 290 292 293 293 295 296 296 296 298 301 303 305 306 306 306 307 308 308 308 307 306 305 307 309 311 312 313 312 310 307 305 307 310 314 320
Height
5834 5833 5832 5831 5831 5831 5831 5831 5831 5831 5831 5830 5830 5830 5830 5830 5830 5830 5829 5829 5828 5828 5828 5827 5827 5827 5827 5827 5827 5827 5827 5827 5826 5825 5825 5824 5824 5823 5822 5821 5821 5820 5819 5818 5817 5815 5814 5812 5810 5807 5804 5802 5800 5797 5794 5792 5789 5785 5782 5779 5776 5773 5769
5831 5831 5830 5829 5829 5829 5828 5828 5829 5829 5828 5828 5827 5827 5827 5827 5827 5828 5828 5827 5827 5826 5826 5826 5825 5825 5826 5826 5826 5826 5826 5825 5824 5823 5823 5822 5821 5820 5819 5818 5817 5817 5816 5815 5814 5812 5811 5809 5807 5804 5802 5799 5796 5793 5790 5788 5785 5781 5778 5775 5772 5769 5765
5829 5828 5827 5827 5827 5827 5826 5826 5827 5826 5825 5825 5825 5825 5824 5824 5825 5825 5825 5825 5825 5824 5824 5824 5824 5824 5824 5824 5824 5824 5824 5823 5822 5821 5821 5820 5819 5818 5817 5816 5815 5814 5813 5812 5810 5809 5807 5806 5804 5801 5799 5796 5793 5790 5788 5785 5782 5778 5774 5771 5768 5765 5761
5826 5825 5825 5825 5825 5824 5824 5824 5824 5824 5823 5823 5823 5822 5822 5822 5823 5823 5823 5823 5823 5822 5822 5822 5822 5822 5822 5822 5822 5822 5821 5821 5820 5819 5818 5817 5816 5815 5814 5813 5812 5811 5810 5808 5807 5805 5803 5802 5800 5798 5795 5792 5789 5786 5784 5782 5779 5775 5771 5768 5765 5762 5758
5823 5823 5823 5823 5823 5822 5822 5822 5822 5821 5821 5821 5820 5820 5819 5820 5821 5821 5821 5821 5821 5820 5820 5820 5820 5820 5821 5820 5820 5820 5819 5819 5818 5817 5816 5815 5814 5813 5812 5811 5810 5808 5807 5805 5804 5802 5800 5798 5796 5793 5791 5788 5786 5783 5780 5778 5775 5771 5768 5765 5762 5759 5755
5820 5820 5821 5821 5821 5821 5820 5820 5820 5819 5819 5819 5818 5818 5817 5818 5819 5819 5819 5819 5819 5818 5818 5818 5819 5819 5819 5818 5818 5817 5817 5816 5815 5814 5813 5812 5811 5810 5809 5808 5807 5806 5804 5803 5801 5799 5797 5794 5792 5789 5787 5784 5781 5779 5776 5774 5771 5767 5764 5761 5758 5755 5751
5818 5818 5818 5819 5819 5818 5818 5818 5818 5818 5817 5816 5816 5816 5816 5816 5817 5817 5817 5817 5817 5817 5817 5817 5817 5817 5816 5816 5816 5815 5814 5813 5812 5811 5811 5810 5809 5808 5807 5806 5805 5803 5802 5800 5798 5796 5793 5791 5789 5786 5783 5780 5777 5775 5772 5769 5766 5763 5760 5756 5753 5750 5746
5816 5816 5816 5816 5816 5816 5816 5816 5816 5816 5815 5814 5814 5814 5815 5815 5815 5815 5815 5815 5815 5815 5815 5815 5815 5814 5814 5814 5813 5812 5812 5811 5810 5809 5808 5807 5806 5805 5804 5803 5802 5801 5799 5797 5795 5793 5790 5788 5785 5782 5779 5776 5773 5771 5768 5765 5762 5759 5755 5751 5748 5745 5741
5813 5813 5813 5814 5814 5814 5814 5814 5814 5814 5813 5813 5812 5812 5813 5813 5813 5813 5813 5813 5813 5813 5813 5813 5813 5812 5812 5811 5811 5810 5809 5808 5807 5807 5806 5805 5804 5803 5802 5801 5799 5798 5796 5794 5792 5789 5787 5784 5782 5779 5776 5773 5769 5766 5763 5761 5758 5755 5751 5747 5743 5740 5736
5810 5811 5811 5811 5811 5812 5812 5812 5812 5812 5811 5811 5810 5810 5810 5811 5811 5811 5811 5811 5811 5811 5811 5811 5810 5810 5810 5809 5808 5808 5807 5806 5805 5804 5803 5802 5801 5800 5799 5798 5797 5795 5793 5791 5788 5786 5783 5780 5778 5775 5772 5769 5766 5762 5759 5756 5753 5749 5746 5743 5739 5735 5731
5808 5808 5808 5809 5809 5809 5810 5810 5810 5809 5809 5809 5808 5808 5808 5809 5809 5809 5809 5809 5809 5809 5809 5809 5808 5808 5807 5807 5806 5805 5804 5804 5803 5802 5801 5800 5799 5798 5796 5795 5793 5792 5789 5787 5785 5782 5779 5777 5774 5771 5769 5766 5762 5759 5756 5752 5749 5745 5741 5737 5735 5732 5727
5805 5805 5805 5806 5806 5807 5807 5807 5807 5807 5807 5807 5806 5806 5806 5807 5807 5807 5807 5807 5807 5807 5807 5806 5806 5805 5805 5804 5804 5803 5802 5801 5800 5799 5798 5797 5796 5795 5793 5792 5790 5788 5786 5783 5781 5778 5775 5773 5770 5767 5764 5761 5758 5755 5752 5748 5745 5742 5738 5733 5730 5727 5724
5802 5802 5803 5803 5804 5804 5805 5805 5804 5805 5805 5805 5804 5804 5803 5804 5804 5804 5805 5805 5804 5804 5804 5804 5803 5803 5802 5802 5801 5800 5799 5798 5797 5796 5795 5794 5793 5792 5790 5788 5786 5784 5782 5779 5777 5774 5771 5769 5766 5763 5760 5757 5754 5751 5748 5744 5740 5737 5735 5731 5727 5723 5720
5799 5800 5800 5801 5801 5802 5802 5802 5802 5802 5803 5803 5802 5801 5801 5801 5802 5802 5802 5802 5802 5802 5802 5801 5801 5800 5800 5799 5798 5798 5796 5796 5794 5793 5792 5791 5790 5788 5786 5784 5782 5780 5778 5775 5772 5770 5767 5764 5761 5759 5756 5753 5750 5747 5744 5740 5736 5732 5729 5727 5724 5720 5717
5797 5797 5797 5798 5798 5799 5799 5799 5799 5800 5800 5800 5799 5799 5798 5799 5799 5799 5800 5800 5800 5800 5799 5799 5798 5798 5797 5796 5796 5794 5793 5792 5791 5790 5789 5787 5786 5784 5782 5780 5778 5776 5773 5771 5768 5766 5763 5760 5757 5754 5752 5749 5746 5743 5739 5736 5732 5728 5725 5722 5720 5716 5712
5794 5794 5794 5795 5796 5796 5796 5796 5796 5797 5798 5798 5797 5796 5796 5796 5796 5797 5797 5797 5797 5797 5796 5796 5795 5794 5794 5793 5792 5791 5790 5789 5788 5787 5785 5784 5782 5780 5778 5776 5774 5771 5769 5766 5764 5761 5759 5756 5753 5750 5747 5745 5741 5738 5735 5732 5729 5725 5722 5718 5716 5713 5709
5791 5791 5791 5792 5793 5793 5793 5793 5794 5795 5795 5795 5794 5794 5794 5794 5794 5794 5794 5794 5794 5794 5793 5793 5792 5791 5790 5789 5788 5787 5786 5785 5784 5783 5782 5780 5778 5775 5773 5772 5769 5767 5765 5762 5760 5757 5755 5752 5749 5746 5743 5740 5737 5734 5731 5728 5725 5722 5719 5715 5712 5709 5706
5788 5788 5789 5790 5790 5791 5791 5791 5791 5792 5792 5791 5791 5791 5791 5791 5791 5791 5791 5791 5791 5791 5790 5789 5788 5787 5786 5786 5785 5784 5783 5782 5781 5779 5778 5776 5774 5772 5770 5768 5765 5763 5761 5758 5756 5753 5751 5748 5745 5742 5739 5736 5733 5730 5727 5724 5722 5719 5716 5713 5709 5705 5702
5785 5785 5786 5787 5788 5788 5788 5788 5789 5789 5789 5789 5788 5788 5788 5788 5788 5788 5788 5788 5788 5787 5786 5785 5784 5784 5783 5782 5781 5780 5780 5779 5777 5776 5774 5772 5770 5768 5766 5764 5762 5759 5757 5754 5752 5749 5747 5744 5741 5738 5736 5732 5729 5726 5723 5721 5718 5715 5712 5709 5706 5702 5698
5782 5783 5784 5784 5785 5785 5785 5786 5786 5786 5786 5786 5785 5785 5785 5785 5785 5785 5785 5785 5784 5783 5782 5782 5781 5780 5780 5779 5777 5776 5776 5775 5773 5772 5770 5768 5766 5764 5762 5760 5758 5755 5753 5751 5748 5746 5743 5741 5738 5735 5732 5728 5725 5723 5720 5717 5714 5711 5708 5705 5701 5698 5695
5779 5780 5781 5781 5782 5782 5782 5783 5783 5783 5782 5782 5782 5782 5782 5782 5782 5782 5782 5782 5781 5780 5779 5778 5777 5777 5776 5775 5774 5773 5772 5770 5769 5768 5766 5764 5762 5760 5758 5756 5754 5752 5749 5747 5745 5742 5740 5737 5734 5731 5728 5725 5722 5719 5716 5714 5710 5707 5704 5701 5697 5694 5692
5776 5776 5778 5778 5778 5779 5779 5780 5780 5780 5780 5779 5779 5779 5780 5780 5780 5780 5779 5778 5778 5777 5776 5775 5774 5774 5773 5772 5770 5769 5768 5767 5765 5764 5762 5760 5759 5756 5754 5752 5750 5748 5745 5743 5741 5738 5736 5733 5730 5727 5724 5721 5718 5716 5713 5710 5707 5703 5700 5697 5694 5691 5688
5773 5773 5774 5775 5775 5776 5776 5777 5777 5777 5777 5777 5776 5777 5777 5777 5777 5777 5776 5775 5775 5774 5772 5771 5771 5770 5769 5768 5767 5766 5764 5763 5762 5760 5758 5757 5755 5753 5750 5749 5746 5744 5742 5739 5737 5734 5732 5729 5726 5723 5720 5717 5715 5712 5710 5707 5703 5700 5697 5694 5692 5689 5685
5770 5770 5771 5772 5772 5772 5773 5774 5774 5774 5774 5774 5774 5774 5774 5774 5774 5773 5772 5772 5771 5770 5769 5768 5767 5767 5765 5764 5763 5762 5761 5759 5758 5757 5755 5753 5751 5749 5747 5745 5743 5740 5738 5735 5733 5731 5728 5725 5722 5719 5716 5714 5712 5709 5706 5703 5700 5697 5693 5690 5688 5686 5683
5767 5767 5768 5769 5769 5769 5770 5771 5771 5771 5771 5771 5771 5771 5771 5771 5771 5770 5769 5769 5768 5767 5766 5764 5764 5763 5762 5760 5759 5758 5757 5755 5754 5753 5751 5750 5747 5745 5743 5741 5739 5736 5734 5731 5729 5727 5724 5721 5718 5715 5713 5711 5708 5705 5703 5700 5696 5693 5690 5687 5685 5683 5680
5763 5764 5765 5765 5766 5766 5767 5768 5768 5768 5767 5767 5768 5768 5768 5767 5767 5766 5766 5765 5764 5764 5763 5761 5760 5759 5758 5756 5755 5754 5753 5752 5751 5749 5747 5746 5743 5741 5739 5737 5735 5732 5730 5728 5725 5723 5720 5717 5714 5712 5709 5707 5705 5702 5699 5696 5693 5689 5687 5684 5682 5679 5677
5760 5761 5762 5762 5763 5763 5764 5765 5765 5764 5764 5764 5764 5765 5764 5764 5763 5763 5762 5761 5761 5760 5759 5758 5757 5756 5754 5753 5752 5751 5749 5748 5747 5745 5743 5741 5739 5737 5735 5733 5731 5728 5726 5724 5721 5719 5716 5713 5711 5708 5706 5703 5701 5698 5696 5693 5690 5686 5684 5681 5679 5676 5674
5757 5758 5758 5759 5759 5760 5761 5761 5761 5761 5760 5760 5761 5761 5761 5760 5760 5759 5758 5758 5757 5756 5755 5754 5753 5752 5750 5749 5748 5747 5746 5745 5743 5741 5739 5738 5736 5734 5732 5729 5727 5724 5722 5720 5718 5715 5712 5710 5707 5704 5702 5700 5698 5695 5692 5689 5686 5683 5681 5679 5676 5673 5670
5754 5754 5755 5755 5756 5757 5757 5758 5758 5757 5757 5757 5757 5757 5757 5756 5756 5756 5755 5754 5754 5753 5751 5749 5748 5747 5746 5745 5744 5743 5742 5741 5739 5737 5735 5734 5732 5730 5728 5726 5723 5720 5718 5716 5714 5711 5709 5706 5703 5701 5699 5697 5694 5692 5689 5686 5683 5680 5678 5676 5673 5670 5667
5750 5751 5751 5752 5752 5753 5754 5754 5754 5753 5753 5753 5753 5753 5753 5753 5752 5752 5752 5751 5750 5749 5747 5745 5743 5743 5741 5741 5740 5739 5738 5737 5735 5733 5731 5729 5728 5726 5724 5722 5720 5717 5715 5713 5710 5708 5705 5702 5700 5698 5696 5693 5691 5688 5686 5683 5680 5677 5675 5673 5670 5667 5664
5747 5747 5747 5747 5748 5749 5750 5750 5750 5750 5750 5750 5750 5749 5749 5749 5749 5749 5748 5747 5746 5745 5743 5741 5739 5738 5737 5736 5736 5735 5734 5733 5731 5728 5727 5725 5724 5722 5721 5718 5716 5713 5711 5709 5707 5704 5702 5699 5697 5695 5693 5690 5688 5685 5682 5680 5677 5675 5672 5670 5667 5664 5661
5744 5744 5743 5743 5744 5745 5746 5746 5746 5746 5746 5746 5746 5746 5746 5745 5745 5745 5744 5743 5742 5741 5739 5737 5736 5734 5733 5731 5731 5730 5730 5729 5727 5725 5723 5721 5720 5718 5717 5714 5712 5710 5708 5706 5703 5701 5698 5696 5694 5691 5689 5687 5685 5682 5679 5677 5674 5672 5669 5667 5664 5662 5659
5740 5740 5739 5739 5741 5742 5742 5742 5742 5742 5742 5743 5743 5743 5742 5742 5741 5740 5739 5738 5737 5736 5735 5733 5732 5730 5729 5727 5726 5726 5726 5725 5724 5722 5720 5718 5717 5715 5713 5711 5708 5706 5704 5702 5699 5697 5695 5693 5691 5688 5686 5684 5681 5679 5677 5674 5671 5669 5667 5664 5662 5659 5657
5736 5736 5736 5737 5737 5738 5738 5739 5739 5739 5739 5739 5739 5739 5739 5738 5737 5736 5735 5734 5733 5732 5730 5729 5727 5726 5725 5724 5722 5722 5721 5721 5719 5718 5716 5715 5713 5711 5709 5707 5705 5703 5701 5698 5696 5694 5692 5690 5687 5685 5683 5681 5679 5676 5674 5671 5669 5666 5664 5662 5659 5657 5655
5733 5733 5733 5734 5734 5735 5735 5736 5736 5736 5736 5736 5736 5735 5734 5734 5732 5731 5731 5730 5729 5727 5726 5724 5723 5722 5721 5720 5719 5718 5717 5717 5715 5713 5712 5711 5708 5706 5705 5703 5701 5699 5697 5695 5693 5690 5688 5686 5684 5682 5680 5678 5676 5673 5671 5668 5666 5664 5661 5659 5657 5655 5653
5729 5729 5730 5730 5731 5731 5732 5732 5732 5732 5732 5732 5732 5731 5730 5729 5728 5727 5726 5725 5724 5723 5722 5721 5720 5718 5717 5716 5715 5714 5713 5713 5711 5709 5708 5706 5704 5702 5701 5699 5698 5696 5693 5691 5689 5687 5685 5683 5681 5679 5677 5675 5673 5671 5668 5666 5663 5661 5659 5656 5654 5652 5651
5725 5725 5726 5727 5727 5727 5728 5728 5728 5728 5728 5728 5727 5726 5725 5725 5724 5723 5722 5721 5719 5718 5717 5717 5716 5714 5713 5712 5711 5710 5709 5708 5707 5706 5704 5702 5700 5699 5697 5695 5694 5692 5690 5687 5685 5683 5681 5679 5677 5675 5673 5672 5670 5668 5665 5663 5661 5658 5656 5654 5652 5650 5648